| time (UTC) | temp F | wind direction | speed MPH | gust MPH | rain 1hr in | rain 24hr in | rain mn in | humidity % | barometer mb |
| 20260508152036 | 54 | 36 | 5.0 | 13.0 | 0.00 | 0.04 | 0.04 | 57 | 1012.2 |
| 20260508150534 | 53 | 106 | 2.0 | 5.0 | 0.00 | 0.04 | 0.04 | 63 | 1012.0 |
| 20260508145047 | 52 | 7 | 1.0 | 7.0 | 0.00 | 0.04 | 0.04 | 62 | 1012.4 |
| 20260508143535 | 52 | 255 | 4.0 | 8.0 | 0.00 | 0.04 | 0.04 | 64 | 1012.5 |
| 20260508142041 | 52 | 234 | 1.0 | 5.0 | 0.00 | 0.04 | 0.04 | 65 | 1012.2 |
| 20260508140542 | 53 | 236 | 1.0 | 5.0 | 0.00 | 0.04 | 0.04 | 67 | 1012.2 |
| 20260508135034 | 53 | 61 | 3.0 | 6.0 | 0.00 | 0.04 | 0.04 | 71 | 1012.1 |
| 20260508133605 | 52 | 359 | 0.0 | 4.0 | 0.00 | 0.04 | 0.04 | 74 | 1012.1 |
| 20260508132041 | 52 | 80 | 1.0 | 4.0 | 0.00 | 0.04 | 0.04 | 73 | 1012.2 |
| 20260508130540 | 51 | 103 | 2.0 | 3.0 | 0.00 | 0.04 | 0.04 | 76 | 1012.3 |
| 20260508125035 | 49 | 110 | 2.0 | 3.0 | 0.00 | 0.04 | 0.04 | 86 | 1012.1 |
| 20260508123533 | 47 | 105 | 1.0 | 2.0 | 0.00 | 0.04 | 0.04 | 91 | 1012.3 |
| 20260508122026 | 45 | 66 | 0.0 | 1.0 | 0.00 | 0.04 | 0.04 | 93 | 1012.4 |
| 20260508120540 | 44 | 15 | 0.0 | 3.0 | 0.00 | 0.04 | 0.04 | 95 | 1012.3 |
| 20260508115034 | 43 | 276 | 0.0 | 3.0 | 0.00 | 0.04 | 0.04 | 95 | 1012.3 |
| 20260508113531 | 42 | 40 | 0.0 | 1.0 | 0.00 | 0.04 | 0.04 | 95 | 1012.3 |
| 20260508112052 | 40 | 1 | 0.0 | 0.0 | 0.00 | 0.04 | 0.04 | 94 | 1012.4 |
| 20260508110553 | 39 | 259 | 0.0 | 0.0 | 0.00 | 0.04 | 0.04 | 94 | 1012.3 |
| 20260508105049 | 38 | 259 | 0.0 | 0.0 | 0.00 | 0.04 | 0.04 | 92 | 1012.2 |
| 20260508103549 | 38 | 259 | 0.0 | 0.0 | 0.00 | 0.04 | 0.04 | 92 | 1012.0 |
| 20260508102046 | 38 | 259 | 0.0 | 0.0 | 0.00 | 0.04 | 0.04 | 91 | 1012.0 |
| 20260508100545 | 38 | 259 | 0.0 | 0.0 | 0.00 | 0.04 | 0.04 | 91 | 1011.7 |
| 20260508095038 | 39 | 259 | 0.0 | 0.0 | 0.00 | 0.04 | 0.04 | 90 | 1011.7 |
| 20260508093534 | 39 | 259 | 0.0 | 0.0 | 0.00 | 0.04 | 0.04 | 90 | 1011.7 |
| 20260508092048 | 40 | 259 | 0.0 | 0.0 | 0.00 | 0.04 | 0.04 | 90 | 1011.6 |
| 20260508090544 | 40 | 259 | 0.0 | 0.0 | 0.00 | 0.04 | 0.04 | 90 | 1011.1 |
| 20260508085039 | 40 | 259 | 0.0 | 0.0 | 0.00 | 0.04 | 0.04 | 89 | 1011.3 |
| 20260508083537 | 41 | 259 | 0.0 | 0.0 | 0.00 | 0.04 | 0.04 | 89 | 1011.3 |
| 20260508082036 | 42 | 259 | 0.0 | 0.0 | 0.00 | 0.04 | 0.04 | 88 | 1011.1 |
| 20260508080530 | 42 | 259 | 0.0 | 0.0 | 0.00 | 0.04 | 0.04 | 88 | 1011.0 |
| 20260508075046 | 43 | 259 | 0.0 | 0.0 | 0.00 | 0.05 | 0.04 | 88 | 1010.9 |
| 20260508073544 | 44 | 259 | 0.0 | 0.0 | 0.00 | 0.05 | 0.04 | 88 | 1010.8 |
| 20260508072042 | 45 | 259 | 0.0 | 0.0 | 0.02 | 0.05 | 0.04 | 88 | 1010.8 |
| 20260508070542 | 45 | 259 | 0.0 | 3.0 | 0.03 | 0.05 | 0.04 | 88 | 1010.8 |
| 20260508065037 | 46 | 67 | 0.0 | 0.0 | 0.03 | 0.07 | 0.04 | 86 | 1010.4 |
| 20260508063601 | 46 | 67 | 0.0 | 3.0 | 0.03 | 0.07 | 0.04 | 86 | 1010.6 |
| 20260508062037 | 47 | 120 | 1.0 | 2.0 | 0.01 | 0.05 | 0.02 | 83 | 1011.2 |
| 20260508060540 | 46 | 155 | 0.0 | 2.0 | 0.00 | 0.04 | 0.01 | 84 | 1011.0 |
| 20260508055027 | 46 | 101 | 0.0 | 0.0 | 0.00 | 0.06 | 0.01 | 85 | 1010.6 |
| 20260508053554 | 46 | 101 | 0.0 | 1.0 | 0.01 | 0.06 | 0.01 | 86 | 1010.6 |
| 20260508052048 | 47 | 101 | 1.0 | 2.0 | 0.01 | 0.06 | 0.01 | 84 | 1010.4 |
| 20260508050547 | 48 | 131 | 0.0 | 0.0 | 0.01 | 0.06 | 0.01 | 83 | 1009.9 |
| 20260508045037 | 49 | 131 | 0.0 | 1.0 | 0.01 | 0.06 | 0.01 | 82 | 1009.8 |
| 20260508043536 | 49 | 151 | 0.0 | 3.0 | 0.00 | 0.05 | 0.00 | 75 | 1010.2 |
| 20260508042031 | 49 | 11 | 0.0 | 0.0 | 0.00 | 0.05 | 0.00 | 81 | 1010.1 |
| 20260508040545 | 48 | 11 | 0.0 | 0.0 | 0.00 | 0.05 | 0.00 | 80 | 1009.1 |
| 20260508035051 | 48 | 11 | 0.0 | 0.0 | 0.00 | 0.05 | 0.05 | 80 | 1008.5 |
| 20260508033529 | 49 | 11 | 0.0 | 0.0 | 0.00 | 0.05 | 0.05 | 79 | 1008.3 |
| 20260508032036 | 49 | 11 | 0.0 | 0.0 | 0.00 | 0.05 | 0.05 | 79 | 1008.3 |
| 20260508030539 | 49 | 11 | 0.0 | 0.0 | 0.00 | 0.05 | 0.05 | 77 | 1008.3 |
| 20260508025057 | 49 | 11 | 0.0 | 0.0 | 0.00 | 0.05 | 0.05 | 78 | 1008.4 |
| 20260508023556 | 49 | 11 | 0.0 | 0.0 | 0.00 | 0.05 | 0.05 | 78 | 1008.5 |
| 20260508022030 | 49 | 11 | 0.0 | 0.0 | 0.00 | 0.05 | 0.05 | 77 | 1008.3 |
| 20260508020534 | 50 | 11 | 0.0 | 0.0 | 0.00 | 0.05 | 0.05 | 75 | 1008.2 |
| 20260508015030 | 50 | 11 | 0.0 | 0.0 | 0.00 | 0.05 | 0.05 | 75 | 1008.2 |
| 20260508013527 | 50 | 11 | 0.0 | 0.0 | 0.00 | 0.05 | 0.05 | 75 | 1008.2 |
| 20260508012042 | 50 | 11 | 0.0 | 0.0 | 0.00 | 0.05 | 0.05 | 73 | 1008.0 |
| 20260508010548 | 51 | 11 | 0.0 | 0.0 | 0.00 | 0.05 | 0.05 | 72 | 1008.0 |
| 20260508005056 | 51 | 11 | 0.0 | 0.0 | 0.00 | 0.05 | 0.05 | 72 | 1007.9 |
| 20260508003540 | 52 | 11 | 0.0 | 0.0 | 0.00 | 0.05 | 0.05 | 68 | 1007.7 |
| 20260508002043 | 53 | 11 | 0.0 | 0.0 | 0.00 | 0.05 | 0.05 | 63 | 1007.5 |
| 20260508000556 | 55 | 11 | 0.0 | 0.0 | 0.00 | 0.05 | 0.05 | 62 | 1007.4 |
| 20260507235051 | 56 | 11 | 0.0 | 0.0 | 0.00 | 0.05 | 0.05 | 61 | 1007.4 |
| 20260507233529 | 58 | 11 | 0.0 | 0.0 | 0.00 | 0.05 | 0.05 | 59 | 1007.0 |
| 20260507232044 | 59 | 11 | 0.0 | 0.0 | 0.00 | 0.05 | 0.05 | 54 | 1006.8 |
| 20260507230540 | 60 | 9 | 0.0 | 2.0 | 0.00 | 0.05 | 0.05 | 46 | 1007.2 |
| 20260507225026 | 60 | 16 | 0.0 | 2.0 | 0.00 | 0.05 | 0.05 | 43 | 1006.9 |
| 20260507223549 | 60 | 119 | 0.0 | 2.0 | 0.00 | 0.05 | 0.05 | 43 | 1006.9 |
| 20260507222104 | 61 | 177 | 1.0 | 3.0 | 0.00 | 0.05 | 0.05 | 39 | 1006.8 |
| 20260507220527 | 61 | 201 | 1.0 | 3.0 | 0.00 | 0.05 | 0.05 | 41 | 1007.0 |
| 20260507215038 | 61 | 286 | 1.0 | 4.0 | 0.00 | 0.05 | 0.05 | 41 | 1006.9 |
| 20260507213536 | 61 | 235 | 1.0 | 6.0 | 0.00 | 0.05 | 0.05 | 42 | 1007.0 |
| 20260507212036 | 61 | 63 | 0.0 | 4.0 | 0.00 | 0.05 | 0.05 | 40 | 1007.0 |
| 20260507210549 | 62 | 128 | 0.0 | 5.0 | 0.00 | 0.05 | 0.05 | 38 | 1006.9 |
| 20260507205041 | 62 | 124 | 2.0 | 9.0 | 0.00 | 0.05 | 0.05 | 39 | 1006.7 |
| 20260507203541 | 63 | 118 | 2.0 | 8.0 | 0.00 | 0.05 | 0.05 | 35 | 1006.8 |
| 20260507202100 | 62 | 201 | 3.0 | 11.0 | 0.00 | 0.05 | 0.05 | 37 | 1006.8 |
| 20260507200543 | 62 | 187 | 2.0 | 5.0 | 0.00 | 0.05 | 0.05 | 37 | 1006.9 |
| 20260507195029 | 63 | 309 | 3.0 | 6.0 | 0.00 | 0.06 | 0.05 | 39 | 1007.0 |
| 20260507193528 | 62 | 231 | 2.0 | 7.0 | 0.00 | 0.06 | 0.05 | 39 | 1007.1 |
| 20260507192051 | 62 | 260 | 3.0 | 7.0 | 0.00 | 0.06 | 0.05 | 39 | 1007.3 |
| 20260507190546 | 61 | 115 | 4.0 | 6.0 | 0.00 | 0.06 | 0.05 | 39 | 1007.5 |
| 20260507185053 | 60 | 157 | 2.0 | 5.0 | 0.00 | 0.10 | 0.05 | 42 | 1007.8 |
| 20260507183531 | 61 | 200 | 3.0 | 8.0 | 0.00 | 0.10 | 0.05 | 42 | 1007.9 |
| 20260507182030 | 61 | 272 | 2.0 | 6.0 | 0.00 | 0.10 | 0.05 | 41 | 1008.0 |
| 20260507180532 | 61 | 71 | 3.0 | 9.0 | 0.00 | 0.10 | 0.05 | 41 | 1008.0 |
| 20260507175046 | 61 | 207 | 3.0 | 7.0 | 0.00 | 0.18 | 0.05 | 39 | 1008.3 |
| 20260507173545 | 61 | 141 | 5.0 | 11.0 | 0.00 | 0.18 | 0.05 | 37 | 1008.7 |
| 20260507172037 | 61 | 232 | 2.0 | 10.0 | 0.00 | 0.18 | 0.05 | 41 | 1008.8 |
| 20260507170545 | 61 | 190 | 4.0 | 11.0 | 0.00 | 0.18 | 0.05 | 41 | 1009.1 |
| 20260507165031 | 60 | 151 | 2.0 | 7.0 | 0.00 | 0.22 | 0.05 | 43 | 1009.2 |
| 20260507163532 | 60 | 167 | 3.0 | 7.0 | 0.00 | 0.22 | 0.05 | 41 | 1009.5 |
| 20260507162031 | 59 | 335 | 4.0 | 7.0 | 0.00 | 0.22 | 0.05 | 41 | 1009.4 |
| 20260507160532 | 59 | 120 | 1.0 | 5.0 | 0.00 | 0.22 | 0.05 | 45 | 1009.7 |
| 20260507155039 | 59 | 128 | 3.0 | 8.0 | 0.00 | 0.33 | 0.05 | 44 | 1009.8 |
| 20260507153535 | 59 | 68 | 2.0 | 6.0 | 0.00 | 0.33 | 0.05 | 45 | 1010.0 |